Waarnemingen

Advertentie
Mijn weer
Florennes, België (6456): temperatuur & dauwpunt: 16.01.2020 04:00:00 - 22.01.2020 04:00:00 (CET)Florennes, België (6456): windsnelheid & windstoten: 16.01.2020 04:00:00 - 22.01.2020 04:00:00 (CET)Florennes, België (6456): windrichting: 16.01.2020 04:00:00 - 22.01.2020 04:00:00 (CET)Florennes, België (6456): luchtdruk: 16.01.2020 04:00:00 - 22.01.2020 04:00:00 (CET)Florennes, België (6456): zicht: 16.01.2020 04:00:00 - 22.01.2020 04:00:00 (CET)
Datum & Tijd tt [°C] td [°C] ff [km/u] ff [kn] fx [km/u] fx [kn] dd ppp [hPa] vv [km]
22.01.2020 04:00:00 -2,6 -3,4 4 2 - - N 1039,0 5
22.01.2020 03:00:00 -1,9 -3,1 4 2 11 6 N 1039,0 7
22.01.2020 02:00:00 -1,6 -3,1 4 2 11 6 N 1038,9 9
22.01.2020 01:00:00 -2,3 -3,6 4 2 - - - 1039,2 7
22.01.2020 00:00:00 -0,3 -2,4 4 2 4 2 N 1039,2 12
21.01.2020 23:00:00 -0,6 -2,1 4 2 7 4 N 1040,0 9
21.01.2020 22:00:00 -0,4 -2,4 4 2 - - N 1040,4 12
21.01.2020 21:00:00 0,0 -2,2 4 2 4 2 N 1040,5 13
21.01.2020 20:00:00 -0,1 -2,2 4 2 11 6 N 1040,7 15
21.01.2020 19:00:00 0,4 -2,2 7 4 - - N 1040,5 15
21.01.2020 18:00:00 0,4 -2,4 4 2 11 6 N 1041,0 20
21.01.2020 17:00:00 1,4 -3,0 7 4 11 6 NNO 1041,0 15
21.01.2020 16:00:00 2,9 -1,7 7 4 - - NNO 1041,2 15
21.01.2020 15:00:00 3,0 -1,7 7 4 7 4 NNO 1041,2 15
21.01.2020 14:00:00 2,8 -1,8 4 2 7 4 N 1042,0 15
21.01.2020 13:00:00 2,0 -1,6 4 2 - - N 1042,7 12
21.01.2020 12:00:00 1,2 -0,8 4 2 7 4 N 1043,4 10
21.01.2020 11:00:00 -0,7 -1,7 4 2 4 2 N 1043,7 8
21.01.2020 10:00:00 -2,1 -2,9 4 2 - - N 1043,7 6
21.01.2020 09:00:00 -3,0 -3,6 4 2 4 2 N 1043,9 3,0
21.01.2020 08:00:00 -3,6 -4,1 4 2 4 2 N 1044,0 5
21.01.2020 07:00:00 -2,6 -3,0 2 1 - - - 1043,7 4,8
21.01.2020 06:00:00 -2,6 -2,9 4 2 4 2 N 1044,0 6
21.01.2020 05:00:00 -2,2 -2,6 4 2 4 2 N 1044,0 7
21.01.2020 04:00:00 -2,1 -2,1 4 2 - - N 1044,2 2,2
21.01.2020 03:00:00 -1,4 -1,9 4 2 7 4 N 1044,7 4,1
21.01.2020 02:00:00 -1,8 -1,9 5 3 7 4 O 1045,4 0,7
21.01.2020 01:00:00 -0,6 -0,8 4 2 - - N 1045,7 1,5
21.01.2020 00:00:00 0,0 -0,3 4 2 11 6 N 1046,2 2,2
20.01.2020 23:00:00 0,8 0,2 7 4 25 14 ONO 1046,0 2,9
20.01.2020 22:00:00 1,8 0,9 18 10 - - O 1046,0 3,9
20.01.2020 21:00:00 1,8 1,5 14 8 22 12 ONO 1046,0 2,1
20.01.2020 20:00:00 1,6 1,4 13 7 18 10 NNO 1046,0 1,5
20.01.2020 19:00:00 1,7 1,0 8 4 - - NNO 1046,4 4,0
20.01.2020 18:00:00 2,7 1,6 7 4 14 8 NNO 1046,0 5
20.01.2020 17:00:00 3,0 1,9 11 6 14 8 N 1046,2 6
20.01.2020 16:00:00 3,8 1,8 8 4 - - NO 1046,7 9
20.01.2020 15:00:00 3,7 2,4 11 6 18 10 NO 1047,2 8
20.01.2020 14:00:00 3,0 2,5 7 4 14 8 NO 1048,0 6
20.01.2020 13:00:00 2,0 2,0 5 3 - - N 1048,5 3,5
20.01.2020 12:00:00 1,5 1,5 4 2 14 8 N 1049,2 1,0
20.01.2020 11:00:00 1,0 1,0 11 6 18 10 O 1049,7 0,1
20.01.2020 10:00:00 0,9 0,9 7 4 - - O 1049,0 0,1
20.01.2020 09:00:00 0,7 0,7 4 2 11 6 N 1048,5 0,1
20.01.2020 08:00:00 0,8 0,7 7 4 11 6 ONO 1048,2 0,1
20.01.2020 07:00:00 0,8 0,8 4 2 - - - 1048,4 0,1
20.01.2020 06:00:00 0,8 0,8 4 2 7 4 N 1048,2 0,1
20.01.2020 05:00:00 0,8 0,7 4 2 11 6 N 1047,9 0,1
20.01.2020 04:00:00 1,0 1,0 7 4 - - O 1047,5 0,1
20.01.2020 03:00:00 1,0 1,0 11 6 18 10 O 1048,0 0,1
20.01.2020 02:00:00 0,5 0,2 5 3 14 8 N 1048,0 4,9
20.01.2020 01:00:00 0,5 -0,1 7 4 - - N 1047,9 6
20.01.2020 00:00:00 0,5 -0,3 11 6 14 8 NNO 1047,7 8
19.01.2020 23:00:00 0,7 0,0 7 4 14 8 NNO 1047,0 9
19.01.2020 22:00:00 0,7 -0,3 11 6 - - NNO 1046,7 10
19.01.2020 21:00:00 1,4 0,2 11 6 14 8 N 1046,0 10
19.01.2020 20:00:00 1,4 0,6 11 6 14 8 N 1045,2 14
19.01.2020 19:00:00 2,4 1,3 11 6 - - N 1044,5 16
19.01.2020 18:00:00 3,4 1,8 14 8 32 18 NO 1043,9 12
19.01.2020 17:00:00 3,9 1,7 14 8 36 19 NNO 1042,7 12
19.01.2020 16:00:00 4,3 1,2 18 10 - - NNO 1041,7 10
19.01.2020 15:00:00 4,1 1,9 22 12 32 18 NNO 1040,9 18
19.01.2020 14:00:00 3,9 2,0 14 8 25 14 N 1040,7 15
19.01.2020 13:00:00 3,3 2,1 14 8 - - N 1040,2 12
19.01.2020 12:00:00 2,3 1,6 13 7 25 14 N 1040,4 7
19.01.2020 11:00:00 1,5 0,9 11 6 18 10 NNW 1040,0 7
19.01.2020 10:00:00 0,7 0,1 11 6 - - NW 1039,2 8
19.01.2020 09:00:00 -0,5 -0,6 11 6 14 8 NW 1038,0 2,3
19.01.2020 08:00:00 -1,1 -1,3 13 7 14 8 W 1037,2 1,5
19.01.2020 07:00:00 -0,7 -0,9 11 6 - - W 1036,5 1,5
19.01.2020 06:00:00 -0,3 -0,7 11 6 14 8 NW 1036,2 3,5
19.01.2020 05:00:00 -0,2 -0,5 11 6 14 8 NW 1035,7 4,3
19.01.2020 04:00:00 0,0 -0,6 7 4 - - NW 1035,0 6
19.01.2020 03:00:00 0,4 -0,2 7 4 14 8 NW 1034,5 9
19.01.2020 02:00:00 0,4 -0,4 7 4 14 8 NW 1033,7 9
19.01.2020 01:00:00 0,5 -0,3 11 6 - - NNW 1033,2 8
19.01.2020 00:00:00 0,7 -0,1 7 4 18 10 NW 1032,7 9
18.01.2020 23:00:00 0,7 -0,2 11 6 14 8 NNW 1032,2 9
18.01.2020 22:00:00 0,9 -0,1 4 2 - - N 1031,7 10
18.01.2020 21:00:00 1,4 -0,1 11 6 14 8 NW 1031,2 12
18.01.2020 20:00:00 1,3 -0,4 7 4 14 8 WNW 1031,0 13
18.01.2020 19:00:00 1,5 -0,3 7 4 - - W 1030,2 20
18.01.2020 18:00:00 2,2 0,0 7 4 14 8 W 1029,5 20
18.01.2020 17:00:00 2,9 0,2 8 4 18 10 W 1028,9 10
18.01.2020 16:00:00 4,0 0,5 11 6 - - W 1028,4 20
18.01.2020 15:00:00 4,4 1,2 14 8 22 12 W 1027,9 19
18.01.2020 14:00:00 4,3 2,0 14 8 22 12 W 1027,5 20
18.01.2020 13:00:00 3,7 1,8 11 6 - - W 1027,7 20
18.01.2020 12:00:00 3,2 1,7 14 8 29 16 W 1027,7 17
18.01.2020 11:00:00 3,0 1,7 18 10 25 14 W 1027,7 18
18.01.2020 10:00:00 3,0 1,5 14 8 - - W 1026,7 19
18.01.2020 09:00:00 2,9 1,6 18 10 25 14 WZW 1026,0 20
18.01.2020 08:00:00 2,7 1,7 14 8 25 14 ZW 1025,2 20
18.01.2020 07:00:00 2,5 1,7 15 8 - - WZW 1024,9 10
18.01.2020 06:00:00 2,7 1,5 18 10 32 18 ZW 1024,5 7
18.01.2020 05:00:00 2,7 1,5 18 10 32 18 ZW 1024,4 20
18.01.2020 04:00:00 2,7 1,2 18 10 - - ZZW 1024,0 20
18.01.2020 03:00:00 2,4 0,8 18 10 29 16 ZW 1024,2 20
18.01.2020 02:00:00 2,2 0,8 18 10 32 18 ZW 1023,7 20
18.01.2020 01:00:00 2,4 0,8 18 10 - - ZW 1023,6 20
18.01.2020 00:00:00 3,0 1,1 18 10 25 14 ZW 1023,2 20
17.01.2020 23:00:00 3,6 1,2 14 8 29 16 WZW 1022,7 20
17.01.2020 22:00:00 4,1 1,7 14 8 - - ZW 1022,2 20
17.01.2020 21:00:00 4,5 1,7 18 10 32 18 WZW 1021,6 20
17.01.2020 20:00:00 5,1 1,7 18 10 29 16 WZW 1021,0 20
17.01.2020 19:00:00 5,6 2,0 22 12 - - WZW 1020,0 20
17.01.2020 18:00:00 5,8 3,0 22 12 47 25 WZW 1019,2 20
17.01.2020 17:00:00 7,5 4,1 18 10 32 18 ZW 1017,6 20
17.01.2020 16:00:00 7,8 4,7 25 14 - - WZW 1016,7 15
17.01.2020 15:00:00 8,1 5,8 29 16 43 23 WZW 1016,2 15
17.01.2020 14:00:00 7,6 6,6 22 12 32 18 ZW 1015,8 10
17.01.2020 13:00:00 7,3 6,8 22 12 - - ZW 1016,1 4,0
17.01.2020 12:00:00 7,0 6,3 22 12 36 19 ZW 1016,3 8
17.01.2020 11:00:00 6,8 5,9 18 10 29 16 ZZW 1016,3 15
17.01.2020 10:00:00 6,6 5,6 18 10 - - Z 1016,2 8
17.01.2020 09:00:00 7,5 4,8 18 10 32 18 ZZW 1016,2 15
17.01.2020 08:00:00 8,4 3,9 24 13 36 19 ZZW 1016,0 10
17.01.2020 07:00:00 8,4 3,9 22 12 - - Z 1016,1 20
17.01.2020 06:00:00 8,1 3,9 18 10 25 14 Z 1016,0 20
17.01.2020 05:00:00 8,1 4,0 18 10 32 18 Z 1016,5 20
17.01.2020 04:00:00 8,3 4,1 22 12 - - Z 1017,2 20
17.01.2020 03:00:00 8,2 4,0 22 12 36 19 Z 1017,7 20
17.01.2020 02:00:00 8,1 3,9 22 12 32 18 Z 1018,2 20
17.01.2020 01:00:00 8,2 3,7 25 14 - - Z 1018,7 20
17.01.2020 00:00:00 8,7 3,6 29 16 43 23 Z 1019,0 20
16.01.2020 23:00:00 9,1 3,6 29 16 47 25 Z 1019,1 20
16.01.2020 22:00:00 9,5 3,8 29 16 - - Z 1019,5 20
16.01.2020 21:00:00 9,9 4,5 29 16 43 23 Z 1019,5 20
16.01.2020 20:00:00 9,6 5,6 25 14 32 18 ZZO 1020,5 20
16.01.2020 19:00:00 8,7 5,6 14 8 - - ZZO 1021,3 20
16.01.2020 18:00:00 10,0 5,4 14 8 36 19 Z 1021,5 20
16.01.2020 17:00:00 10,6 5,8 18 10 29 16 Z 1021,7 20
16.01.2020 16:00:00 10,9 6,5 18 10 - - ZZO 1021,8 20
16.01.2020 15:00:00 10,1 6,9 25 14 36 19 ZZO 1022,1 20
16.01.2020 14:00:00 9,3 6,5 22 12 32 18 Z 1023,5 20
16.01.2020 13:00:00 8,8 6,7 22 12 - - Z 1024,2 12
16.01.2020 12:00:00 7,4 6,4 14 8 22 12 Z 1025,4 12
16.01.2020 11:00:00 6,1 5,7 14 8 22 12 Z 1026,0 9
16.01.2020 10:00:00 4,6 4,6 14 8 - - Z 1026,2 0,4
16.01.2020 09:00:00 4,4 4,3 11 6 18 10 Z 1026,5 1,2
16.01.2020 08:00:00 4,6 4,2 11 6 14 8 Z 1026,5 20
16.01.2020 07:00:00 3,9 3,9 4 2 - - - 1026,5 4,0
16.01.2020 06:00:00 1,5 1,5 4 2 7 4 N 1026,7 0,1
16.01.2020 05:00:00 3,2 3,2 4 2 11 6 N 1026,5 -
16.01.2020 04:00:00 4,5 4,4 2 1 - - - 1026,0 4,9

tt = temperatuur
td = dauwpunt
ff = windsnelheid
fx = windstoten
dd = windrichting
ppp = luchtdruk
vv = zicht

Weerstations in de omgeving